#timestamp,LO_Frequency,Hit,StdDev 
1700848815.3,286046999.7,N
1700848835.1,286047002.6,N
1700848855.9,286047001.2,N
1700848875.7,286046999.4,N
1700848895.5,286046999.4,N
1700848915.4,286046998.9,N
1700848935.2,286046999.0,N
1700848955.0,286046996.7,N
1700848955.9,286046996.7,N
1700848975.8,286046999.0,N
1700848995.6,286046998.4,N
1700849045.5,286046998.6,E
1700849055.4,286047000.8,N
1700849075.2,286046999.8,P
1700849095.1,286046999.7,N
1700849096.0,286046999.7,N
1700849115.8,286047000.2,N
1700849135.6,286047000.2,N
1700849155.5,286047002.1,Y
1700849175.3,286047002.8,P
1700849195.2,286047002.4,N
1700849215.9,286047000.0,N
1700849235.7,286047000.2,N
1700849255.6,286046998.6,N
1700849275.4,286046998.7,N
1700849295.2,286047000.5,N
1700849315.1,286046998.4,N
1700849316.0,286046998.4,N
1700849335.8,286046999.0,N
1700849355.7,286046998.7,N
1700849375.5,286046997.2,N
1700849395.3,286046997.2,N
1700849415.2,286046999.1,N
1700849435.0,286046996.5,N
1700849435.9,286046996.5,N
1700849455.8,286046997.3,N
1700849475.6,286046997.7,N
1700849495.4,286046995.5,N
1700849515.3,286046996.4,N
1700849535.1,286046995.6,N
1700849555.8,286046994.9,N
1700849575.7,286046994.9,N
1700849595.5,286046995.8,N
1700849615.4,286046995.7,N
1700849635.2,286046996.0,N
1700849655.0,286046996.0,N
1700849655.9,286046996.0,N
1700849675.8,286046996.2,N
1700849695.6,286046995.9,N
1700849715.4,286046993.4,Y
1700849735.3,286046995.3,P
1700849755.1,286046995.7,P
1700849775.9,286046995.9,P
1700849795.7,286046995.5,Y
1700849815.5,286046999.9,P
1700849835.4,286047001.0,N
1700849855.2,286046999.9,N
1700849875.0,286046998.5,N
1700849876.0,286046998.5,N
1700849895.8,286046998.1,N
1700849915.6,286047000.2,N
1700849935.5,286047000.5,N
1700849955.3,286047000.9,N
1700849975.1,286046998.7,N
1700849995.9,286046998.3,N
1700850015.7,286046998.4,N
1700850035.5,286047000.4,N
1700850055.4,286047001.0,N
1700850075.2,286047000.0,N
1700850095.1,286046998.4,N
1700850096.0,286046998.4,N
1700850115.8,286046996.5,N
1700850135.6,286046999.1,N
1700850155.5,286046998.9,N
1700850175.3,286046999.0,N
1700850195.1,286046999.1,N
1700850215.9,286046996.8,N
1700850235.7,286046999.6,N
1700850255.6,286046997.4,N
1700850275.4,286046997.6,N
1700850295.2,286046997.1,N
1700850315.1,286046997.1,N
1700850316.0,286046997.1,N
1700850335.8,286046997.2,N
1700850355.6,286046998.0,N
1700850375.5,286046994.9,Y
1700850395.3,286046999.6,P
1700850415.2,286046998.8,N
1700850435.9,286046998.9,N
1700850455.7,286046996.8,Y
1700850475.6,286046999.6,P
1700850495.4,286046999.6,N
1700850515.2,286046997.1,P
1700850535.1,286046996.7,Y
1700850536.0,286046996.7,P
1700850555.8,286047001.1,N
1700850575.7,286046998.5,N
1700850595.5,286047001.0,N
1700850615.3,286047000.4,N
1700850635.2,286047000.9,N
1700850655.0,286047000.1,N
1700850655.9,286047000.1,N
1700850675.8,286047002.6,N
1700850695.6,286046999.7,N
1700850715.4,286047000.0,N
1700850735.3,286046999.7,N
1700850755.1,286047000.6,N
1700850775.8,286047001.0,N
1700850795.7,286047000.3,N
1700850815.5,286047000.3,N
1700850835.3,286047001.0,N
1700850855.2,286047000.5,N
1700850875.0,286046998.5,N
1700850875.9,286046998.5,N
1700850895.8,286046998.2,N
1700850915.6,286047001.2,N
1700850935.4,286046998.9,N
1700850955.3,286046996.9,N
1700850975.1,286046997.8,N
1700850995.8,286046997.2,N
1700851015.7,286046998.7,N
1700851035.5,286046997.0,N
1700851055.4,286046997.3,N
1700851075.2,286046996.7,N
1700851095.0,286046997.3,N
1700851095.9,286046997.3,N
1700851115.8,286046998.8,N
1700851135.6,286046998.7,N
1700851155.4,286046999.5,N
1700851175.3,286046996.6,N
1700851195.1,286046997.2,N
1700851215.9,286046997.3,N
1700851235.7,286046995.1,Y
1700851255.5,286046997.9,P
1700851275.4,286046997.1,P
1700851295.2,286046997.1,P
1700851315.0,286046999.6,N
1700851316.0,286046999.6,N
1700851335.8,286046996.8,Y
1700851355.6,286046998.2,P
1700851375.5,286047000.4,P
1700851395.3,286047002.3,N
1700851415.1,286046999.7,N
1700851435.9,286047000.4,N
1700851455.7,286046999.9,N
1700851475.6,286047001.1,N
1700851495.4,286046998.7,N
1700851515.2,286046999.1,N
1700851535.1,286046999.2,N
1700851536.0,286046999.2,N
1700851555.8,286046999.0,N
1700851575.6,286046998.2,N
1700851595.5,286047001.1,N
1700851615.3,286047001.1,N
1700851635.2,286046998.3,N
1700851655.9,286046998.5,N
1700851675.7,286047001.2,N
1700851695.6,286046998.2,N
1700851715.4,286046998.4,N
1700851735.2,286046999.4,N
1700851755.1,286046999.0,N
1700851756.0,286046999.0,N
1700851775.8,286046998.6,N
1700851795.7,286046999.6,N
1700851815.5,286047000.7,N
1700851835.3,286046998.2,N
1700851855.2,286046999.3,N
1700851875.0,286046999.1,N
1700851875.9,286046999.1,N
1700851895.7,286046999.1,N
1700851915.6,286046998.5,N
1700851935.4,286047000.5,N
1700851955.3,286047011.9,Y
1700851975.1,286047002.8,P
1700851995.8,286047000.2,N
1700852015.7,286047000.4,N
1700852035.5,286047001.0,N
1700852055.4,286046999.9,N
1700852075.2,286047002.7,N
1700852095.0,286047001.9,N
1700852095.9,286047001.9,N
1700852115.8,286047004.2,Y
1700852135.6,286047001.5,P
1700852155.4,286047004.4,P
1700852175.3,286047001.9,N
1700852195.1,286047004.3,Y
1700852215.9,286047002.6,P
1700852235.7,286047002.4,P
1700852255.5,286047002.1,P
1700852275.4,286047000.8,Y
1700852295.2,286046997.7,P
1700852315.0,286046995.3,N
1700852316.0,286046995.3,N
1700852335.8,286046997.9,N
1700852355.6,286046997.3,N
1700852375.5,286046995.3,N
1700852395.3,286046997.9,N
